Prudenville, MI

3:10 PM EST on January 19, 2017 (GMT -0500)
Roscommon County

Weather History for KHTL - April, 2013

Change the Weather History Date:

Friday, April 12, 2013

  Actual Average Record
Temperature  
Mean Temperature 33 °F 41 °F  
Max Temperature 36 °F 53 °F 77 °F (1931)
Min Temperature 30 °F 30 °F 3 °F (1923)
Degree Days  
Heating Degree Days 32 24  
Month to date heating degree days 390 318  
Since 1 July heating degree days 6919 7303  
Cooling Degree Days 0 0  
Month to date cooling degree days 0 0  
Year to date cooling degree days 0 0  
Moisture  
Dew Point 30 °F    
Average Humidity 91    
Maximum Humidity 100    
Minimum Humidity 82    
Precipitation  
Precipitation 0.18 in 0.09 in 1.32 in (1971)
Month to date precipitation 3.11 1.02  
Year to date precipitation 9.63 5.58  
Snow  
Snow 0.30 in 0.20 in 4.90 in (2007)
Month to date snowfall 2.5 2.3  
Since 1 July snowfall 59.6 65.1  
Snow Depth 2.00 in    
Sea Level Pressure  
Sea Level Pressure 29.63 in    
Wind  
Wind Speed 8 mph (ESE)    
Max Wind Speed 22 mph    
Max Gust Speed 28 mph    
Visibility 5 miles    
Events Snow    
T = Trace of Precipitation, MM = Missing Value Source: NWS Daily Summary

Daily Weather History Graph

Daily Weather History Graph

Search for Another Location

Airport or City:

Trip Planner

Search our weather history database for the weather conditions in past years. The results will help you decide how hot, cold, wet, or windy it might be!

Date:

Astronomy

Apr. 12, 2013 Rise Set
Actual Time 6:59 AM EDT 8:19 PM EDT
Civil Twilight 6:29 AM EDT 8:49 PM EDT
Nautical Twilight 5:53 AM EDT 9:26 PM EDT
Astronomical Twilight 5:15 AM EDT 10:04 PM EDT
Moon 8:04 AM EDT (4/12) 10:55 PM EDT (4/12)
Length of Visible Light 14h 20m
Length of Day
13h 20m
Waxing Crescent, 5% of the Moon is Illuminated
Apr 12
Waxing Crescent
Apr 18
First Quarter
Apr 25
Full
May 2
Last Quarter
May 9
New

Hourly Weather History & Observations

Time (EDT) Temp. Windchill Dew Point Humidity Pressure Visibility Wind Dir Wind Speed Gust Speed Precip Events Conditions
12:05 AM 30.2 °F 19.8 °F 28.4 °F 93% 29.75 in 0.8 mi ENE 13.8 mph - 0.02 in   Mist
12:14 AM 30.2 °F 18.9 °F 28.4 °F 93% 29.75 in 1.0 mi East 16.1 mph 21.9 mph 0.03 in   Mist
12:29 AM 30.2 °F 19.3 °F 28.4 °F 93% 29.75 in 1.2 mi East 15.0 mph 21.9 mph 0.05 in Snow Light Snow
12:41 AM 30.2 °F 18.9 °F 28.4 °F 93% 29.75 in 1.5 mi East 16.1 mph - 0.05 in Snow Light Snow
12:53 AM 30.0 °F 18.7 °F 28.0 °F 92% 29.77 in 1.2 mi ENE 16.1 mph - 0.06 in Snow Light Snow
1:14 AM 30.2 °F 18.5 °F 28.4 °F 93% 29.72 in 1.8 mi ENE 17.3 mph 27.6 mph 0.01 in Snow Light Snow
1:19 AM 30.2 °F 18.5 °F 28.4 °F 93% 29.72 in 2.5 mi East 17.3 mph 27.6 mph 0.01 in Snow Light Snow
1:25 AM 30.2 °F 19.3 °F 28.4 °F 93% 29.71 in 3.0 mi ENE 15.0 mph 23.0 mph 0.01 in   Overcast
1:39 AM 30.2 °F 19.3 °F 28.4 °F 93% 29.70 in 4.0 mi ENE 15.0 mph - 0.01 in   Overcast
1:49 AM 30.2 °F 18.5 °F 28.4 °F 93% 29.69 in 2.5 mi ENE 17.3 mph - 0.01 in   Overcast
1:53 AM 30.0 °F 17.9 °F 28.0 °F 92% 29.72 in 3.0 mi ENE 18.4 mph 26.5 mph 0.01 in   Overcast
2:38 AM 30.2 °F 18.9 °F 26.6 °F 86% 29.69 in 4.0 mi East 16.1 mph 23.0 mph 0.04 in   Overcast
2:53 AM 30.0 °F 19.5 °F 27.0 °F 88% 29.73 in 4.0 mi ENE 13.8 mph - 0.06 in   Overcast
3:29 AM 30.2 °F 18.5 °F 26.6 °F 86% 29.65 in 6.0 mi ENE 17.3 mph - 0.02 in Snow Light Snow
3:53 AM 30.0 °F 18.7 °F 27.0 °F 88% 29.69 in 6.0 mi ENE 16.1 mph - 0.04 in   Overcast
4:18 AM 30.2 °F 19.3 °F 26.6 °F 86% 29.64 in 6.0 mi ENE 15.0 mph - 0.00 in   Overcast
4:30 AM 30.2 °F 18.5 °F 26.6 °F 86% 29.62 in 5.0 mi ENE 17.3 mph - 0.01 in   Overcast
4:44 AM 30.2 °F 19.3 °F 26.6 °F 86% 29.62 in 8.0 mi ENE 15.0 mph 21.9 mph 0.02 in   Overcast
4:53 AM 30.0 °F 19.5 °F 27.0 °F 88% 29.67 in 10.0 mi ENE 13.8 mph 24.2 mph 0.02 in   Overcast
5:53 AM 30.0 °F 20.0 °F 27.0 °F 88% 29.64 in 10.0 mi ENE 12.7 mph - 0.01 in   Overcast
6:53 AM 30.0 °F 19.5 °F 27.0 °F 88% 29.60 in 10.0 mi ENE 13.8 mph - 0.00 in   Overcast
7:53 AM 30.0 °F 21.1 °F 28.0 °F 92% 29.61 in 10.0 mi East 10.4 mph - N/A   Overcast
8:53 AM 30.9 °F 22.8 °F 28.9 °F 92% 29.60 in 2.0 mi East 9.2 mph - N/A   Overcast
9:09 AM 30.2 °F 20.2 °F 28.4 °F 93% 29.55 in 3.0 mi East 12.7 mph - N/A   Overcast
9:19 AM 30.2 °F 20.8 °F 28.4 °F 93% 29.55 in 2.5 mi East 11.5 mph - N/A   Overcast
9:39 AM 30.2 °F 21.9 °F 28.4 °F 93% 29.55 in 3.0 mi ENE 9.2 mph 18.4 mph N/A   Overcast
9:53 AM 30.9 °F 25.2 °F 28.9 °F 92% 29.61 in 6.0 mi ESE 5.8 mph - N/A   Overcast
10:12 AM 30.2 °F 26.7 °F 28.4 °F 93% 29.57 in 6.0 mi ESE 3.5 mph - N/A   Overcast
10:23 AM 32.0 °F 28.7 °F 30.2 °F 93% 29.57 in 1.8 mi ESE 3.5 mph - 0.00 in Snow Light Snow
10:27 AM 30.2 °F 25.4 °F 30.2 °F 100% 29.57 in 1.0 mi ESE 4.6 mph - 0.00 in Snow Light Snow
10:31 AM 30.2 °F - 30.2 °F 100% 29.57 in 0.8 mi Calm Calm - 0.00 in Snow Light Snow
10:42 AM 30.2 °F 26.7 °F 30.2 °F 100% 29.57 in 0.8 mi East 3.5 mph - 0.00 in Snow Light Snow
10:50 AM 30.2 °F 25.4 °F 30.2 °F 100% 29.57 in 1.0 mi East 4.6 mph - 0.00 in Snow Light Snow
10:53 AM 30.9 °F 26.2 °F 30.0 °F 96% 29.61 in 1.0 mi East 4.6 mph - 0.01 in Snow Light Snow
11:04 AM 32.0 °F 26.4 °F 30.2 °F 93% 29.57 in 1.5 mi East 5.8 mph - 0.00 in Snow Light Snow
11:08 AM 32.0 °F 27.5 °F 30.2 °F 93% 29.57 in 2.0 mi East 4.6 mph - 0.00 in Snow Light Snow
11:18 AM 32.0 °F 27.5 °F 30.2 °F 93% 29.57 in 4.0 mi East 4.6 mph - 0.00 in   Overcast
11:27 AM 32.0 °F 28.7 °F 30.2 °F 93% 29.57 in 2.5 mi East 3.5 mph - 0.00 in   Overcast
11:37 AM 32.0 °F 26.4 °F 30.2 °F 93% 29.58 in 3.0 mi East 5.8 mph - 0.00 in   Overcast
11:44 AM 32.0 °F 27.5 °F 30.2 °F 93% 29.57 in 4.0 mi East 4.6 mph - 0.00 in   Overcast
11:53 AM 32.0 °F 26.4 °F 30.0 °F 92% 29.62 in 3.0 mi East 5.8 mph - 0.00 in   Overcast
12:01 PM 32.0 °F 26.4 °F 30.2 °F 93% 29.58 in 2.5 mi East 5.8 mph - 0.00 in Snow Light Snow
12:05 PM 33.8 °F 28.6 °F 30.2 °F 87% 29.57 in 1.5 mi East 5.8 mph - 0.00 in Snow Light Snow
12:11 PM 32.0 °F 26.4 °F 30.2 °F 93% 29.57 in 0.8 mi East 5.8 mph - 0.00 in Snow Light Snow
12:19 PM 33.8 °F 28.6 °F 30.2 °F 87% 29.57 in 0.8 mi East 5.8 mph - 0.01 in Snow Light Snow
12:23 PM 33.8 °F 28.6 °F 30.2 °F 87% 29.57 in 1.2 mi East 5.8 mph - 0.01 in Snow Light Snow
12:28 PM 33.8 °F 29.6 °F 30.2 °F 87% 29.57 in 1.8 mi East 4.6 mph - 0.01 in Snow Light Snow
12:43 PM 33.8 °F 28.6 °F 30.2 °F 87% 29.57 in 1.2 mi ESE 5.8 mph - 0.01 in Snow Light Snow
12:50 PM 33.8 °F 28.6 °F 30.2 °F 87% 29.57 in 2.0 mi East 5.8 mph - 0.01 in Snow Light Snow
12:53 PM 34.0 °F 29.8 °F 30.9 °F 89% 29.61 in 2.5 mi ESE 4.6 mph - 0.01 in Snow Light Snow
1:09 PM 33.8 °F 30.8 °F 30.2 °F 87% 29.57 in 2.5 mi SE 3.5 mph - 0.00 in Snow Light Snow
1:17 PM 33.8 °F 28.6 °F 30.2 °F 87% 29.57 in 6.0 mi East 5.8 mph - 0.00 in Snow Light Snow
1:24 PM 33.8 °F 28.6 °F 30.2 °F 87% 29.57 in 6.0 mi ESE 5.8 mph - 0.00 in Snow Light Snow
1:29 PM 33.8 °F 29.6 °F 30.2 °F 87% 29.57 in 8.0 mi SE 4.6 mph - 0.00 in   Overcast
1:31 PM 33.8 °F - 30.2 °F 87% 29.57 in 9.0 mi Calm Calm - 0.00 in   Overcast
1:53 PM 35.1 °F - 32.0 °F 89% 29.61 in 9.0 mi Calm Calm - 0.00 in   Overcast
2:17 PM 33.8 °F 28.6 °F 30.2 °F 87% 29.57 in 7.0 mi South 5.8 mph - 0.00 in Snow Light Snow
2:38 PM 33.8 °F 28.6 °F 30.2 °F 87% 29.58 in 5.0 mi South 5.8 mph - 0.00 in Snow Light Snow
2:53 PM 34.0 °F 28.8 °F 32.0 °F 92% 29.62 in 7.0 mi South 5.8 mph - 0.00 in   Overcast
3:16 PM 35.6 °F 31.7 °F 32.0 °F 87% 29.59 in 9.0 mi South 4.6 mph - N/A   Overcast
3:48 PM 35.6 °F 31.7 °F 30.2 °F 81% 29.59 in 9.0 mi SSW 4.6 mph - N/A   Overcast
3:53 PM 35.1 °F 31.0 °F 30.9 °F 85% 29.62 in 7.0 mi SW 4.6 mph - N/A   Overcast
4:53 PM 35.1 °F 32.2 °F 33.1 °F 92% 29.63 in 9.0 mi South 3.5 mph - N/A   Overcast
5:53 PM 35.1 °F 32.2 °F 33.1 °F 92% 29.64 in 3.0 mi South 3.5 mph - N/A   Overcast
6:17 PM 35.6 °F - 33.8 °F 93% 29.61 in 2.0 mi Calm Calm - N/A   Overcast
6:43 PM 35.6 °F 32.8 °F 33.8 °F 93% 29.61 in 3.0 mi SE 3.5 mph - N/A   Overcast
6:53 PM 35.1 °F - 34.0 °F 96% 29.65 in 6.0 mi Calm Calm - N/A   Overcast
7:13 PM 35.6 °F 31.7 °F 33.8 °F 93% 29.62 in 9.0 mi South 4.6 mph - N/A   Overcast
7:36 PM 35.6 °F 29.9 °F 33.8 °F 93% 29.62 in 5.0 mi SSW 6.9 mph - N/A   Overcast
7:53 PM 35.1 °F 30.1 °F 33.1 °F 92% 29.66 in 3.0 mi SW 5.8 mph - 0.01 in   Overcast
8:05 PM 35.6 °F 30.7 °F 33.8 °F 93% 29.62 in 3.0 mi SW 5.8 mph - N/A   Overcast
8:53 PM 34.0 °F 27.2 °F 33.1 °F 96% 29.67 in 10.0 mi SW 8.1 mph - 0.01 in   Overcast
9:40 PM 33.8 °F 25.3 °F 30.2 °F 87% 29.65 in 10.0 mi West 11.5 mph 23.0 mph N/A   Overcast
9:53 PM 34.0 °F 25.0 °F 30.9 °F 89% 29.69 in 10.0 mi West 12.7 mph 17.3 mph N/A   Overcast
10:08 PM 33.8 °F 26.4 °F 30.2 °F 87% 29.66 in 10.0 mi West 9.2 mph - N/A   Overcast
10:20 PM 33.8 °F 25.8 °F 30.2 °F 87% 29.66 in 10.0 mi West 10.4 mph - N/A   Overcast
10:53 PM 33.1 °F 26.1 °F 30.0 °F 89% 29.71 in 10.0 mi West 8.1 mph - N/A   Overcast
11:53 PM 32.0 °F 23.6 °F 28.0 °F 85% 29.72 in 10.0 mi West 10.4 mph - N/A   Overcast